[[{"header":{"parameterUnit":"m.s-1","parameterCategory":1,"la1":30.2991,"la2":30.254,"lo1":-89.0895,"lo2":-89.0444,"dy":0.0017,"dx":0.0017,"nx":28,"ny":28,"refTime":"2025-04-22T21:00:00:Z","depth":0,"parameterNumber":2,"parameterNumberName":"U-component_of_WINDS"},"data":[0,0,0,0,0,0,0,0,0,0,0,0,0,0,0,0,0,0,0,0,0,0,0,0,0,0,0,0,0,0,0,0,0,0,0,0,0,0,0,0,0,0,0,0,0,0,0,0,0,0,0,0,0,0,0,0,0,0,-2.4351,-2.4351,0,-2.4359,-2.436,-2.436,-2.4297,-2.4295,-2.4294,-2.4292,-2.4303,-2.4305,-2.4307,0,0,0,0,0,0,0,0,0,0,0,0,0,-2.4284,-2.4285,-2.4351,-2.4351,-2.4351,-2.4359,-2.436,-2.436,-2.4297,-2.4295,-2.4293,-2.4291,-2.4303,-2.4305,-2.4307,0,0,0,0,0,0,0,0,0,0,0,0,0,-2.4305,-2.4286,-2.4351,-2.4321,-2.4318,-2.4359,-2.436,-2.436,-2.4298,-2.4295,-2.4293,-2.429,-2.4302,-2.4305,-2.4307,-2.4378,0,0,-2.4316,-2.4318,0,0,0,0,0,0,0,0,-2.4304,-2.4307,-2.4325,-2.4323,-2.432,-2.4324,-2.434,-2.4366,-2.4299,-2.4306,-2.4292,-2.4289,-2.4313,-2.4314,-2.4322,-2.4379,-2.4379,-2.4317,-2.4318,-2.432,-2.432,0,0,0,0,0,0,0,-2.4302,-2.4307,-2.4354,-2.4326,-2.4323,-2.4308,-2.4308,-2.4345,-2.4324,-2.4305,-2.43,-2.4302,-2.4311,-2.4319,-2.4322,-2.4379,-2.4316,-2.4319,-2.4321,-2.4322,-2.4495,-2.4498,0,0,0,0,0,0,-2.4304,-2.4306,-2.4354,-2.4355,-2.4305,-2.4312,-2.4312,-2.4326,-2.4323,-2.432,-2.4304,-2.4299,-2.4316,-2.4318,-2.4322,-2.4404,-2.432,-2.4322,-2.4324,-2.4492,-2.4496,-2.4499,0,0,0,0,0,0,-2.4303,-2.4309,-2.4354,-2.4329,-2.4334,-2.4315,-2.4332,-2.4327,-2.4336,-2.4323,-2.4319,-2.4317,-2.4314,-2.4318,-2.4364,-2.4404,-2.4324,-2.4326,-2.4489,-2.4493,-2.4497,-2.457,0,0,0,0,0,0,-2.4302,-2.4309,-2.4335,-2.433,-2.4335,-2.4396,-2.4334,-2.433,-2.4341,-2.4334,-2.4333,-2.4331,-2.4312,-2.436,-2.4367,-2.4406,-2.4329,-2.4485,-2.4491,-2.4496,-2.4564,-2.4576,-2.4586,0,0,0,0,0,-2.4299,-2.4356,-2.4337,-2.4343,-2.4367,-2.4398,-2.4401,-2.4377,-2.4344,-2.437,-2.4362,-2.4331,-2.4399,-2.4366,-2.4373,-2.4413,-2.4483,-2.4489,-2.4495,-2.4558,-2.4573,-2.4586,0,0,0,0,0,0,-2.4367,-2.4355,-2.4333,-2.439,-2.4395,-2.4387,-2.442,-2.4394,-2.4409,-2.4403,-2.4373,-2.4374,-2.4426,-2.4424,-2.4388,-2.4482,-2.4435,-2.4443,-2.448,-2.4494,-2.4506,-2.4504,-2.4331,0,0,0,0,0,-2.4388,-2.4414,-2.4402,-2.4453,-2.4457,-2.4438,-2.4451,-2.4432,-2.4437,-2.4439,-2.4434,-2.4441,-2.4464,-2.4479,-2.4499,-2.4564,-2.4563,-2.4595,-2.4606,-2.4616,-2.4623,-2.4657,-2.4671,-2.452,-2.452,-2.452,0,0,-2.4433,-2.4429,-2.4447,-2.4466,-2.4468,-2.4496,-2.444,-2.4472,-2.4492,-2.4444,-2.4487,-2.4484,-2.449,-2.4546,-2.457,-2.4546,-2.4665,-2.4624,-2.4631,-2.4633,-2.4665,-2.4679,-2.4692,-2.4524,-2.4523,-2.4523,0,0,-2.4527,-2.4527,-2.4569,-2.4573,-2.4576,-2.4564,-2.4574,-2.4571,-2.4566,-2.4609,-2.4574,-2.4598,-2.4638,-2.4643,-2.4651,-2.4749,-2.4721,-2.4757,-2.4816,-2.4849,-2.4861,-2.4871,-2.4906,-2.4919,-2.4764,-2.4765,-2.4765,0,-2.4582,-2.4621,-2.4595,-2.4628,-2.4638,-2.4596,-2.4638,-2.4643,-2.4654,-2.4662,-2.4635,-2.4684,-2.4685,-2.4741,-2.4765,-2.4773,-2.4784,-2.4756,-2.4861,-2.4872,-2.4881,-2.4913,-2.4927,-2.4769,-2.4768,-2.4768,-2.4768,0,-2.4688,-2.4716,-2.475,-2.4761,-2.4774,-2.4813,-2.4793,-2.481,-2.4791,-2.4781,-2.4826,-2.4826,-2.4845,-2.4857,-2.4839,-2.4911,-2.4896,-2.4866,-2.4818,-2.49,-2.493,-2.4942,-2.4775,-2.4774,-2.4772,-2.4771,0,0,-2.4824,-2.482,-2.4833,-2.4837,-2.4839,-2.486,-2.4897,-2.4915,-2.4931,-2.494,-2.497,-2.5005,-2.4977,-2.4987,-2.4969,-2.4998,-2.5075,-2.4964,-2.4964,-2.4984,-2.5155,-2.5177,-2.5192,-2.5057,-2.5059,-2.5061,-2.5154,0,-2.4916,-2.4978,-2.4955,-2.5019,-2.5044,-2.5005,-2.5037,-2.5042,-2.5035,-2.5056,-2.5048,-2.5073,-2.5035,-2.504,-2.5067,-2.506,-2.5109,-2.5053,-2.5085,-2.5087,-2.5084,-2.5208,-2.5231,-2.5318,-2.5166,-2.5168,-2.5169,0,-2.5031,-2.5044,-2.511,-2.5107,-2.5117,-2.5146,-2.5161,-2.5182,-2.5188,-2.518,-2.5191,-2.5167,-2.5204,-2.5157,-2.5207,-2.517,-2.5182,-2.5181,-2.5183,-2.5185,-2.5132,-2.5211,-2.5346,-2.5359,-2.5188,-2.5186,-2.5185,0,-2.5123,-2.5157,-2.5201,-2.5206,-2.5204,-2.5225,-2.5226,-2.5228,-2.5241,-2.5255,-2.5263,-2.5281,-2.5291,-2.5306,-2.5288,-2.5256,-2.5341,-2.5293,-2.5336,-2.5337,-2.5355,-2.5354,-2.5493,-2.5365,-2.5365,-2.5364,-2.5364,0,-2.5227,-2.5269,-2.5242,-2.5269,-2.5314,-2.5289,-2.5335,-2.5332,-2.5335,-2.536,-2.5328,-2.5354,-2.5328,-2.5352,-2.5338,-2.5382,-2.5387,-2.5382,-2.5378,-2.5385,-2.5385,-2.5391,-2.5384,-2.5368,-2.5367,-2.5366,-2.5366,0,-2.5336,-2.532,-2.5365,-2.536,-2.536,-2.5394,-2.5389,-2.5414,-2.5405,-2.5438,-2.5445,-2.5431,-2.5456,-2.544,-2.5466,-2.5457,-2.5514,-2.5502,-2.5512,-2.5508,-2.5552,-2.5548,-2.5699,-2.5717,-2.5579,-2.558,-2.5581,0,-2.5403,-2.5434,-2.5432,-2.5447,-2.5449,-2.5474,-2.5486,-2.5463,-2.5478,-2.5486,-2.5511,-2.5533,-2.555,-2.5593,-2.5586,-2.5606,-2.5593,-2.5645,-2.5596,-2.5602,-2.5593,-2.5591,-2.5594,-2.5654,-2.5656,-2.5657,-2.5659,0,-2.5524,-2.5514,-2.5533,-2.555,-2.5565,-2.5577,-2.5587,-2.5601,-2.5578,-2.5596,-2.5621,-2.5635,-2.5661,-2.5685,-2.5702,-2.5703,-2.5677,-2.5674,-2.5685,-2.5692,-2.5696,-2.5693,-2.5538,-2.567,-2.5669,-2.5668,-2.5668,-2.5667,-2.5613,-2.5639,-2.5642,-2.5664,-2.5669,-2.5678,-2.5701,-2.5695,-2.5716,-2.5735,-2.5721,-2.5751,-2.5756,-2.5776,-2.5781,-2.5805,-2.5784,-2.58,-2.5804,-2.5808,-2.5814,-2.5693,-2.5808,-2.5808,-2.5807,-2.5807,-2.5807,0,-2.5731,-2.5731,-2.5752,-2.5766,-2.5784,-2.5758,-2.5767,-2.5784,-2.5811,-2.5818,-2.5835,-2.5865,-2.5887,-2.5882,-2.5902,-2.5922,-2.5911,-2.5929,-2.5926,-2.5927,-2.5832,-2.582,-2.5937,-2.5937,-2.5937,-2.5937,-2.5937,-2.5937,-2.5795,-2.5836,-2.5828,-2.5872,-2.5872,-2.5901,-2.5908,-2.5917,-2.5923,-2.5957,-2.5975,-2.5971,-2.5974,-2.5994,-2.6014,-2.6012,-2.602,-2.6042,-2.6036,-2.5947,-2.5934,-2.5921,-2.591,-2.6044,-2.6044,-2.6129,-2.6129,-2.613]},{"header":{"parameterUnit":"m.s-1","parameterCategory":1,"la1":30.2991,"la2":30.254,"lo1":-89.0895,"lo2":-89.0444,"dy":0.0017,"dx":0.0017,"nx":28,"ny":28,"refTime":"2025-04-22T21:00:00:Z","depth":0,"parameterNumber":3,"parameterNumberName":"V-component_of_WINDS"},"data":[0,0,0,0,0,0,0,0,0,0,0,0,0,0,0,0,0,0,0,0,0,0,0,0,0,0,0,0,0,0,0,0,0,0,0,0,0,0,0,0,0,0,0,0,0,0,0,0,0,0,0,0,0,0,0,0,0,0,2.1424,2.1425,0,2.155,2.1552,2.1553,2.1647,2.1648,2.1649,2.165,2.1779,2.1781,2.1784,0,0,0,0,0,0,0,0,0,0,0,0,0,2.1263,2.1265,2.1424,2.1426,2.1427,2.155,2.1552,2.1554,2.1647,2.1648,2.1649,2.165,2.1778,2.1781,2.1784,0,0,0,0,0,0,0,0,0,0,0,0,0,2.1355,2.1266,2.1424,2.1489,2.1496,2.155,2.1552,2.1554,2.1647,2.1648,2.165,2.1651,2.1777,2.1781,2.1785,2.1784,0,0,2.1797,2.1798,0,0,0,0,0,0,0,0,2.135,2.1361,2.1478,2.1484,2.1492,2.1584,2.1542,2.1631,2.1647,2.159,2.165,2.1651,2.1713,2.1722,2.1743,2.179,2.1796,2.1797,2.1799,2.1801,2.1802,0,0,0,0,0,0,0,2.1343,2.1356,2.1474,2.1479,2.1488,2.1511,2.1526,2.156,2.1643,2.1595,2.1602,2.1615,2.1717,2.1739,2.1747,2.1798,2.1797,2.18,2.1803,2.1805,2.185,2.1849,0,0,0,0,0,0,2.1327,2.135,2.147,2.1478,2.1423,2.1513,2.1529,2.1554,2.1643,2.1657,2.1614,2.1619,2.1732,2.1742,2.1752,2.1757,2.1801,2.1805,2.1807,2.1851,2.185,2.1848,0,0,0,0,0,0,2.1323,2.1337,2.1465,2.1416,2.1434,2.1514,2.1541,2.1555,2.1578,2.1657,2.1673,2.1621,2.1733,2.1746,2.1775,2.1763,2.1807,2.181,2.1852,2.1851,2.1849,2.1767,0,0,0,0,0,0,2.1318,2.1335,2.1336,2.1415,2.1436,2.1486,2.154,2.1557,2.1584,2.1592,2.1668,2.1682,2.1735,2.1769,2.1779,2.1769,2.1813,2.1854,2.1852,2.1849,2.1772,2.1763,2.1756,0,0,0,0,0,2.1312,2.1308,2.1335,2.1349,2.1439,2.1486,2.1498,2.1559,2.1583,2.1584,2.1635,2.168,2.1762,2.1771,2.1784,2.1774,2.1855,2.1852,2.185,2.1775,2.1765,2.1756,0,0,0,0,0,0,2.1225,2.1319,2.1351,2.1373,2.142,2.1501,2.1505,2.1546,2.1588,2.1594,2.1668,2.1684,2.1705,2.1743,2.1751,2.1778,2.1814,2.1814,2.1753,2.1744,2.1736,2.1727,2.1817,0,0,0,0,0,2.1208,2.1238,2.1319,2.133,2.1352,2.1424,2.1447,2.149,2.1542,2.1563,2.1616,2.1665,2.1702,2.1725,2.1764,2.1777,2.1795,2.1777,2.1769,2.1762,2.1761,2.1771,2.1763,2.1839,2.1839,2.184,0,0,2.1174,2.1229,2.1244,2.1314,2.1356,2.1385,2.1441,2.1469,2.1491,2.1567,2.1598,2.1638,2.1698,2.1719,2.1731,2.1751,2.1744,2.1759,2.1752,2.1756,2.1767,2.176,2.1753,2.1838,2.1838,2.1838,0,0,2.1127,2.1171,2.1186,2.1226,2.1289,2.1337,2.134,2.1415,2.1445,2.1476,2.1534,2.1561,2.1623,2.1663,2.1691,2.1657,2.1699,2.1668,2.1627,2.1635,2.1629,2.1624,2.1612,2.1607,2.1666,2.1666,2.1666,0,2.1076,2.1123,2.1188,2.1213,2.1242,2.1311,2.1326,2.1362,2.1434,2.1452,2.1473,2.1553,2.1597,2.1629,2.162,2.1641,2.1646,2.166,2.1625,2.162,2.1617,2.1606,2.1601,2.1662,2.1662,2.1663,2.1663,0,2.1058,2.1088,2.1092,2.116,2.1189,2.1209,2.1276,2.1298,2.1338,2.1383,2.1414,2.147,2.1521,2.1531,2.1571,2.1568,2.1578,2.1611,2.1648,2.1604,2.1595,2.1592,2.1656,2.1657,2.1659,2.166,0,0,2.0961,2.1063,2.1063,2.1094,2.1168,2.1193,2.1215,2.1265,2.1282,2.1329,2.1349,2.1399,2.143,2.1462,2.1506,2.1513,2.1482,2.1546,2.1548,2.1532,2.1482,2.1458,2.1452,2.151,2.151,2.1509,2.1477,0,2.0925,2.0969,2.1028,2.1052,2.1081,2.1147,2.1166,2.1213,2.1255,2.1285,2.1332,2.1367,2.1405,2.1424,2.1434,2.1484,2.1474,2.1487,2.153,2.1531,2.1514,2.1447,2.1422,2.1389,2.1474,2.1474,2.1474,0,2.089,2.0933,2.096,2.1031,2.1045,2.1061,2.1111,2.1139,2.1194,2.1224,2.1258,2.1306,2.1332,2.1365,2.1402,2.141,2.143,2.1457,2.1457,2.1464,2.15,2.1453,2.138,2.1375,2.1469,2.1469,2.1469,0,2.0817,2.0881,2.0906,2.093,2.1013,2.1023,2.1058,2.1113,2.1139,2.1182,2.12,2.1245,2.127,2.1303,2.1362,2.138,2.1392,2.143,2.1418,2.1416,2.1418,2.1417,2.1348,2.143,2.143,2.143,2.143,0,2.0772,2.0786,2.0874,2.0889,2.0906,2.0973,2.0988,2.1029,2.1077,2.1101,2.116,2.1181,2.1256,2.1285,2.1331,2.1354,2.1365,2.139,2.1402,2.1385,2.1382,2.14,2.1404,2.1429,2.1429,2.1429,2.143,0,2.0693,2.0753,2.0784,2.0859,2.0878,2.0888,2.0952,2.0969,2.1014,2.1043,2.1054,2.1125,2.1162,2.1223,2.1279,2.131,2.1325,2.1345,2.1306,2.1314,2.1298,2.1299,2.1239,2.1234,2.1318,2.1317,2.1316,0,2.0661,2.0673,2.0749,2.077,2.0802,2.0834,2.086,2.0926,2.0951,2.1012,2.1021,2.1064,2.1101,2.1158,2.1214,2.1257,2.1278,2.1254,2.1285,2.1268,2.1279,2.1277,2.1279,2.1247,2.1246,2.1245,2.1244,0,2.0597,2.0626,2.0662,2.0707,2.0737,2.0776,2.0819,2.0832,2.0906,2.0931,2.097,2.0999,2.1055,2.1096,2.1147,2.1182,2.1225,2.1234,2.1233,2.1217,2.1194,2.1206,2.1287,2.1235,2.1236,2.1237,2.1237,2.1238,2.0542,2.0555,2.0611,2.0649,2.0687,2.0724,2.0744,2.0791,2.0825,2.0876,2.0912,2.0949,2.1001,2.1073,2.1106,2.1136,2.1155,2.1154,2.1154,2.1153,2.1147,2.1188,2.1145,2.1145,2.1146,2.1146,2.1146,0,2.0481,2.052,2.0554,2.0611,2.064,2.0677,2.0726,2.0748,2.0779,2.0825,2.086,2.0905,2.0944,2.1003,2.1047,2.1059,2.108,2.1068,2.1069,2.1076,2.1127,2.1123,2.1051,2.1051,2.1051,2.1051,2.1051,2.1051,2.0454,2.0479,2.0513,2.0558,2.0596,2.0633,2.0657,2.0692,2.0728,2.0775,2.0809,2.0846,2.0897,2.0945,2.0983,2.0999,2.1013,2.0995,2.1017,2.1064,2.1073,2.1081,2.1078,2.0997,2.0997,2.0965,2.0964,2.0964]}]]